owner,sensor,date,latitude,longitude,vertical_datum,mass_concentration_of_oxygen_in_sea_water,qcFlag 
DISL,ioos:station:DISL:BSCA:1,2014-10-01T00:00:00Z,30.3288,-87.8293,2.046,6.36,1111122 
DISL,ioos:station:DISL:BSCA:1,2014-10-01T00:30:00Z,30.3288,-87.8293,2.062,4.09,1111122 
DISL,ioos:station:DISL:BSCA:1,2014-10-01T01:00:00Z,30.3288,-87.8293,2.082,1.71,1111122 
DISL,ioos:station:DISL:BSCA:1,2014-10-01T01:30:00Z,30.3288,-87.8293,2.102,2.26,1111122 
DISL,ioos:station:DISL:BSCA:1,2014-10-01T02:00:00Z,30.3288,-87.8293,2.127,1.81,1111122 
DISL,ioos:station:DISL:BSCA:1,2014-10-01T02:30:00Z,30.3288,-87.8293,2.148,1.87,1111122 
DISL,ioos:station:DISL:BSCA:1,2014-10-01T03:00:00Z,30.3288,-87.8293,2.166,1.36,1111122 
DISL,ioos:station:DISL:BSCA:1,2014-10-01T03:30:00Z,30.3288,-87.8293,2.191,1.47,1111122 
DISL,ioos:station:DISL:BSCA:1,2014-10-01T04:00:00Z,30.3288,-87.8293,2.208,1.4,1111122 
DISL,ioos:station:DISL:BSCA:1,2014-10-01T04:30:00Z,30.3288,-87.8293,2.23,1.96,1111122 
DISL,ioos:station:DISL:BSCA:1,2014-10-01T05:00:00Z,30.3288,-87.8293,2.248,2.11,1111122 
DISL,ioos:station:DISL:BSCA:1,2014-10-01T05:30:00Z,30.3288,-87.8293,2.277,2.45,1111122 
DISL,ioos:station:DISL:BSCA:1,2014-10-01T06:00:00Z,30.3288,-87.8293,2.305,2.26,1111122 
DISL,ioos:station:DISL:BSCA:1,2014-10-01T06:30:00Z,30.3288,-87.8293,2.328,1.78,1111122 
DISL,ioos:station:DISL:BSCA:1,2014-10-01T07:00:00Z,30.3288,-87.8293,2.341,2.02,1111122 
DISL,ioos:station:DISL:BSCA:1,2014-10-01T07:30:00Z,30.3288,-87.8293,2.346,1.95,1111122 
DISL,ioos:station:DISL:BSCA:1,2014-10-01T08:00:00Z,30.3288,-87.8293,2.354,2.09,1111122 
DISL,ioos:station:DISL:BSCA:1,2014-10-01T08:30:00Z,30.3288,-87.8293,2.36,1.93,1111122 
DISL,ioos:station:DISL:BSCA:1,2014-10-01T09:00:00Z,30.3288,-87.8293,2.359,1.5,1111122 
DISL,ioos:station:DISL:BSCA:1,2014-10-01T09:30:00Z,30.3288,-87.8293,2.352,1.62,1111122 
DISL,ioos:station:DISL:BSCA:1,2014-10-01T10:00:00Z,30.3288,-87.8293,2.327,2.67,1111122 
DISL,ioos:station:DISL:BSCA:1,2014-10-01T10:30:00Z,30.3288,-87.8293,2.303,1.38,1111122 
DISL,ioos:station:DISL:BSCA:1,2014-10-01T11:00:00Z,30.3288,-87.8293,2.277,2.14,1111122 
DISL,ioos:station:DISL:BSCA:1,2014-10-01T11:30:00Z,30.3288,-87.8293,2.254,3.41,1111122 
DISL,ioos:station:DISL:BSCA:1,2014-10-01T12:00:00Z,30.3288,-87.8293,2.229,1.89,1111122 
DISL,ioos:station:DISL:BSCA:1,2014-10-01T12:30:00Z,30.3288,-87.8293,2.204,2.68,1111122 
DISL,ioos:station:DISL:BSCA:1,2014-10-01T13:00:00Z,30.3288,-87.8293,2.164,3.46,1111122 
DISL,ioos:station:DISL:BSCA:1,2014-10-01T13:30:00Z,30.3288,-87.8293,2.137,3.44,1111122 
DISL,ioos:station:DISL:BSCA:1,2014-10-01T14:00:00Z,30.3288,-87.8293,2.102,3.16,1111122 
DISL,ioos:station:DISL:BSCA:1,2014-10-01T14:30:00Z,30.3288,-87.8293,2.074,3.56,1111122 
DISL,ioos:station:DISL:BSCA:1,2014-10-01T15:00:00Z,30.3288,-87.8293,2.039,3.17,1111122 
DISL,ioos:station:DISL:BSCA:1,2014-10-01T15:30:00Z,30.3288,-87.8293,2.022,2.46,1111122 
DISL,ioos:station:DISL:BSCA:1,2014-10-01T16:00:00Z,30.3288,-87.8293,2.002,2.27,1111122 
DISL,ioos:station:DISL:BSCA:1,2014-10-01T16:30:00Z,30.3288,-87.8293,1.981,2.79,1111122 
DISL,ioos:station:DISL:BSCA:1,2014-10-01T17:00:00Z,30.3288,-87.8293,1.968,3.07,1111122 
DISL,ioos:station:DISL:BSCA:1,2014-10-01T17:30:00Z,30.3288,-87.8293,1.946,4.35,1111122 
DISL,ioos:station:DISL:BSCA:1,2014-10-01T18:00:00Z,30.3288,-87.8293,1.924,4.17,1111122 
DISL,ioos:station:DISL:BSCA:1,2014-10-01T18:30:00Z,30.3288,-87.8293,1.903,4.33,1111122 
DISL,ioos:station:DISL:BSCA:1,2014-10-01T19:00:00Z,30.3288,-87.8293,1.883,5.15,1111122 
DISL,ioos:station:DISL:BSCA:1,2014-10-01T19:30:00Z,30.3288,-87.8293,1.868,5.01,1111122 
DISL,ioos:station:DISL:BSCA:1,2014-10-01T20:00:00Z,30.3288,-87.8293,1.862,5.29,1111122 
DISL,ioos:station:DISL:BSCA:1,2014-10-01T20:30:00Z,30.3288,-87.8293,1.869,5.43,1111122 
DISL,ioos:station:DISL:BSCA:1,2014-10-01T21:00:00Z,30.3288,-87.8293,1.866,5.55,1111122 
DISL,ioos:station:DISL:BSCA:1,2014-10-01T21:30:00Z,30.3288,-87.8293,1.891,5.5,1111122 
DISL,ioos:station:DISL:BSCA:1,2014-10-01T22:00:00Z,30.3288,-87.8293,1.907,5.08,1111122 
DISL,ioos:station:DISL:BSCA:1,2014-10-01T22:30:00Z,30.3288,-87.8293,1.921,5.6,1111122 
DISL,ioos:station:DISL:BSCA:1,2014-10-01T23:00:00Z,30.3288,-87.8293,1.927,5.51,1111122 
DISL,ioos:station:DISL:BSCA:1,2014-10-01T23:30:00Z,30.3288,-87.8293,1.971,4.86,1111122 
DISL,ioos:station:DISL:BSCA:1,2014-10-02T00:00:00Z,30.3288,-87.8293,1.984,5.73,1111122 
DISL,ioos:station:DISL:BSCA:1,2014-10-02T00:30:00Z,30.3288,-87.8293,2.018,5.28,1111122 
DISL,ioos:station:DISL:BSCA:1,2014-10-02T01:00:00Z,30.3288,-87.8293,2.041,4.47,1111122 
DISL,ioos:station:DISL:BSCA:1,2014-10-02T01:30:00Z,30.3288,-87.8293,2.075,3.75,1111122 
DISL,ioos:station:DISL:BSCA:1,2014-10-02T02:00:00Z,30.3288,-87.8293,2.095,3.61,1111122 
DISL,ioos:station:DISL:BSCA:1,2014-10-02T02:30:00Z,30.3288,-87.8293,2.129,3.48,1111122 
DISL,ioos:station:DISL:BSCA:1,2014-10-02T03:00:00Z,30.3288,-87.8293,2.149,3.95,1111122 
DISL,ioos:station:DISL:BSCA:1,2014-10-02T03:30:00Z,30.3288,-87.8293,2.179,4.07,1111122 
DISL,ioos:station:DISL:BSCA:1,2014-10-02T04:00:00Z,30.3288,-87.8293,2.202,3.02,1111122 
DISL,ioos:station:DISL:BSCA:1,2014-10-02T04:30:00Z,30.3288,-87.8293,2.226,4.27,1111122 
DISL,ioos:station:DISL:BSCA:1,2014-10-02T05:00:00Z,30.3288,-87.8293,2.243,4.57,1111122 
DISL,ioos:station:DISL:BSCA:1,2014-10-02T05:30:00Z,30.3288,-87.8293,2.259,4.12,1111122 
DISL,ioos:station:DISL:BSCA:1,2014-10-02T06:00:00Z,30.3288,-87.8293,2.279,3.5,1111122 
DISL,ioos:station:DISL:BSCA:1,2014-10-02T06:30:00Z,30.3288,-87.8293,2.307,4.57,1111122 
DISL,ioos:station:DISL:BSCA:1,2014-10-02T07:00:00Z,30.3288,-87.8293,2.324,4.74,1111122 
DISL,ioos:station:DISL:BSCA:1,2014-10-02T07:30:00Z,30.3288,-87.8293,2.344,5.74,1111122 
DISL,ioos:station:DISL:BSCA:1,2014-10-02T08:00:00Z,30.3288,-87.8293,2.362,6.68,1111122 
DISL,ioos:station:DISL:BSCA:1,2014-10-02T08:30:00Z,30.3288,-87.8293,2.371,6.69,1111122 
DISL,ioos:station:DISL:BSCA:1,2014-10-02T09:00:00Z,30.3288,-87.8293,2.37,4.63,1111122 
DISL,ioos:station:DISL:BSCA:1,2014-10-02T09:30:00Z,30.3288,-87.8293,2.366,6.63,1111122 
DISL,ioos:station:DISL:BSCA:1,2014-10-02T10:00:00Z,30.3288,-87.8293,2.372,5.68,1111122 
DISL,ioos:station:DISL:BSCA:1,2014-10-02T10:30:00Z,30.3288,-87.8293,2.347,5.86,1111122 
DISL,ioos:station:DISL:BSCA:1,2014-10-02T11:00:00Z,30.3288,-87.8293,2.331,6.6,1111122 
DISL,ioos:station:DISL:BSCA:1,2014-10-02T11:30:00Z,30.3288,-87.8293,2.308,6.65,1111122 
DISL,ioos:station:DISL:BSCA:1,2014-10-02T12:00:00Z,30.3288,-87.8293,2.292,6.75,1111122 
DISL,ioos:station:DISL:BSCA:1,2014-10-02T12:30:00Z,30.3288,-87.8293,2.281,6.73,1111122 
DISL,ioos:station:DISL:BSCA:1,2014-10-02T13:00:00Z,30.3288,-87.8293,2.258,6.5,1111122 
DISL,ioos:station:DISL:BSCA:1,2014-10-02T13:30:00Z,30.3288,-87.8293,2.233,5.6,1111122 
DISL,ioos:station:DISL:BSCA:1,2014-10-02T14:00:00Z,30.3288,-87.8293,2.195,6.19,1111122 
DISL,ioos:station:DISL:BSCA:1,2014-10-02T14:30:00Z,30.3288,-87.8293,2.162,6.24,1111122 
DISL,ioos:station:DISL:BSCA:1,2014-10-02T15:00:00Z,30.3288,-87.8293,2.127,6.38,1111122 
DISL,ioos:station:DISL:BSCA:1,2014-10-02T15:30:00Z,30.3288,-87.8293,2.095,6.87,1111122 
DISL,ioos:station:DISL:BSCA:1,2014-10-02T16:00:00Z,30.3288,-87.8293,2.067,6.6,1111122 
DISL,ioos:station:DISL:BSCA:1,2014-10-02T16:30:00Z,30.3288,-87.8293,2.037,6.17,1111122 
DISL,ioos:station:DISL:BSCA:1,2014-10-02T17:00:00Z,30.3288,-87.8293,2.015,6.38,1111122 
DISL,ioos:station:DISL:BSCA:1,2014-10-02T17:30:00Z,30.3288,-87.8293,1.98,7.06,1111122 
DISL,ioos:station:DISL:BSCA:1,2014-10-02T18:00:00Z,30.3288,-87.8293,1.952,7.44,1111122 
DISL,ioos:station:DISL:BSCA:1,2014-10-02T18:30:00Z,30.3288,-87.8293,1.932,7.87,1111122 
DISL,ioos:station:DISL:BSCA:1,2014-10-02T19:00:00Z,30.3288,-87.8293,1.909,7.83,1111122 
DISL,ioos:station:DISL:BSCA:1,2014-10-02T19:30:00Z,30.3288,-87.8293,1.906,7.62,1111122 
DISL,ioos:station:DISL:BSCA:1,2014-10-02T20:00:00Z,30.3288,-87.8293,1.883,7.71,1111122 
DISL,ioos:station:DISL:BSCA:1,2014-10-02T20:30:00Z,30.3288,-87.8293,1.878,7.69,1111122 
DISL,ioos:station:DISL:BSCA:1,2014-10-02T21:00:00Z,30.3288,-87.8293,1.859,7.81,1111122 
DISL,ioos:station:DISL:BSCA:1,2014-10-02T21:30:00Z,30.3288,-87.8293,1.854,7.89,1111122 
DISL,ioos:station:DISL:BSCA:1,2014-10-02T22:00:00Z,30.3288,-87.8293,1.858,7.8,1111122 
DISL,ioos:station:DISL:BSCA:1,2014-10-02T22:30:00Z,30.3288,-87.8293,1.859,7.95,1111122 
DISL,ioos:station:DISL:BSCA:1,2014-10-02T23:00:00Z,30.3288,-87.8293,1.875,8.04,1111122 
DISL,ioos:station:DISL:BSCA:1,2014-10-02T23:30:00Z,30.3288,-87.8293,1.897,7.94,1111122 
DISL,ioos:station:DISL:BSCA:1,2014-10-03T00:00:00Z,30.3288,-87.8293,1.938,7.63,1111122 
DISL,ioos:station:DISL:BSCA:1,2014-10-03T00:30:00Z,30.3288,-87.8293,1.967,7.33,1111122 
DISL,ioos:station:DISL:BSCA:1,2014-10-03T01:00:00Z,30.3288,-87.8293,1.997,7.57,1111122 
DISL,ioos:station:DISL:BSCA:1,2014-10-03T01:30:00Z,30.3288,-87.8293,2.022,7.4,1111122 
DISL,ioos:station:DISL:BSCA:1,2014-10-03T02:00:00Z,30.3288,-87.8293,2.037,7.47,1111122 
DISL,ioos:station:DISL:BSCA:1,2014-10-03T02:30:00Z,30.3288,-87.8293,2.057,6.93,1111122 
DISL,ioos:station:DISL:BSCA:1,2014-10-03T03:00:00Z,30.3288,-87.8293,2.082,7.04,1111122 
DISL,ioos:station:DISL:BSCA:1,2014-10-03T03:30:00Z,30.3288,-87.8293,2.109,6.89,1111122 
DISL,ioos:station:DISL:BSCA:1,2014-10-03T04:00:00Z,30.3288,-87.8293,2.132,6.72,1111122 
DISL,ioos:station:DISL:BSCA:1,2014-10-03T04:30:00Z,30.3288,-87.8293,2.16,6.75,1111122 
DISL,ioos:station:DISL:BSCA:1,2014-10-03T05:00:00Z,30.3288,-87.8293,2.174,6.79,1111122 
DISL,ioos:station:DISL:BSCA:1,2014-10-03T05:30:00Z,30.3288,-87.8293,2.208,6.66,1111122 
DISL,ioos:station:DISL:BSCA:1,2014-10-03T06:00:00Z,30.3288,-87.8293,2.224,6.49,1111122 
DISL,ioos:station:DISL:BSCA:1,2014-10-03T06:30:00Z,30.3288,-87.8293,2.262,6.4,1111122 
DISL,ioos:station:DISL:BSCA:1,2014-10-03T07:00:00Z,30.3288,-87.8293,2.293,6.28,1111122 
DISL,ioos:station:DISL:BSCA:1,2014-10-03T07:30:00Z,30.3288,-87.8293,2.316,6.25,1111122 
DISL,ioos:station:DISL:BSCA:1,2014-10-03T08:00:00Z,30.3288,-87.8293,2.326,6.34,1111122 
DISL,ioos:station:DISL:BSCA:1,2014-10-03T08:30:00Z,30.3288,-87.8293,2.331,6.63,1111122 
DISL,ioos:station:DISL:BSCA:1,2014-10-03T09:00:00Z,30.3288,-87.8293,2.342,6.7,1111122 
DISL,ioos:station:DISL:BSCA:1,2014-10-03T09:30:00Z,30.3288,-87.8293,2.349,6.54,1111122 
DISL,ioos:station:DISL:BSCA:1,2014-10-03T10:00:00Z,30.3288,-87.8293,2.369,6.59,1111122 
DISL,ioos:station:DISL:BSCA:1,2014-10-03T10:30:00Z,30.3288,-87.8293,2.388,6.52,1111122 
DISL,ioos:station:DISL:BSCA:1,2014-10-03T11:00:00Z,30.3288,-87.8293,2.387,6.55,1111122 
DISL,ioos:station:DISL:BSCA:1,2014-10-03T11:30:00Z,30.3288,-87.8293,2.39,6.61,1111122 
DISL,ioos:station:DISL:BSCA:1,2014-10-03T12:00:00Z,30.3288,-87.8293,2.379,6.15,1111122 
DISL,ioos:station:DISL:BSCA:1,2014-10-03T12:30:00Z,30.3288,-87.8293,2.353,6.31,1111122 
DISL,ioos:station:DISL:BSCA:1,2014-10-03T13:00:00Z,30.3288,-87.8293,2.365,6.45,1111122 
DISL,ioos:station:DISL:BSCA:1,2014-10-03T13:30:00Z,30.3288,-87.8293,2.38,6.54,1111122 
DISL,ioos:station:DISL:BSCA:1,2014-10-03T14:00:00Z,30.3288,-87.8293,2.426,6.62,1111122 
DISL,ioos:station:DISL:BSCA:1,2014-10-03T14:30:00Z,30.3288,-87.8293,2.356,6.48,1111122 
DISL,ioos:station:DISL:BSCA:1,2014-10-03T15:00:00Z,30.3288,-87.8293,2.287,6.26,1111122 
DISL,ioos:station:DISL:BSCA:1,2014-10-03T15:30:00Z,30.3288,-87.8293,2.22,6.52,1111122 
DISL,ioos:station:DISL:BSCA:1,2014-10-03T16:00:00Z,30.3288,-87.8293,2.124,6.73,1111122 
DISL,ioos:station:DISL:BSCA:1,2014-10-03T16:30:00Z,30.3288,-87.8293,2.115,5.26,1111122 
DISL,ioos:station:DISL:BSCA:1,2014-10-03T17:00:00Z,30.3288,-87.8293,2.065,5.27,1111122 
DISL,ioos:station:DISL:BSCA:1,2014-10-03T17:30:00Z,30.3288,-87.8293,2.036,6.98,1111122 
DISL,ioos:station:DISL:BSCA:1,2014-10-03T18:00:00Z,30.3288,-87.8293,2.027,5.75,1111122 
DISL,ioos:station:DISL:BSCA:1,2014-10-03T18:30:00Z,30.3288,-87.8293,2.027,4.63,1111122 
DISL,ioos:station:DISL:BSCA:1,2014-10-03T19:00:00Z,30.3288,-87.8293,2.041,5.66,1111122 
DISL,ioos:station:DISL:BSCA:1,2014-10-03T19:30:00Z,30.3288,-87.8293,1.997,6.18,1111122 
DISL,ioos:station:DISL:BSCA:1,2014-10-03T20:00:00Z,30.3288,-87.8293,1.99,6.63,1111122 
DISL,ioos:station:DISL:BSCA:1,2014-10-03T20:30:00Z,30.3288,-87.8293,1.947,6.35,1111122 
DISL,ioos:station:DISL:BSCA:1,2014-10-03T21:00:00Z,30.3288,-87.8293,1.903,6.53,1111122 
DISL,ioos:station:DISL:BSCA:1,2014-10-03T21:30:00Z,30.3288,-87.8293,1.875,5.89,1111122 
DISL,ioos:station:DISL:BSCA:1,2014-10-03T22:00:00Z,30.3288,-87.8293,1.856,6.44,1111122 
DISL,ioos:station:DISL:BSCA:1,2014-10-03T22:30:00Z,30.3288,-87.8293,1.847,6.45,1111122 
DISL,ioos:station:DISL:BSCA:1,2014-10-03T23:00:00Z,30.3288,-87.8293,1.832,6.34,1111122 
DISL,ioos:station:DISL:BSCA:1,2014-10-03T23:30:00Z,30.3288,-87.8293,1.836,6.13,1111122 
DISL,ioos:station:DISL:BSCA:1,2014-10-04T00:00:00Z,30.3288,-87.8293,1.853,5.58,1111122 
DISL,ioos:station:DISL:BSCA:1,2014-10-04T00:30:00Z,30.3288,-87.8293,1.888,6.39,1111122 
DISL,ioos:station:DISL:BSCA:1,2014-10-04T01:00:00Z,30.3288,-87.8293,1.923,5.97,1111122 
DISL,ioos:station:DISL:BSCA:1,2014-10-04T01:30:00Z,30.3288,-87.8293,1.941,6.73,1111122 
DISL,ioos:station:DISL:BSCA:1,2014-10-04T02:00:00Z,30.3288,-87.8293,1.937,7.25,1111122 
DISL,ioos:station:DISL:BSCA:1,2014-10-04T02:30:00Z,30.3288,-87.8293,1.964,7.06,1111122 
DISL,ioos:station:DISL:BSCA:1,2014-10-04T03:00:00Z,30.3288,-87.8293,1.963,6.93,1111122 
DISL,ioos:station:DISL:BSCA:1,2014-10-04T03:30:00Z,30.3288,-87.8293,1.988,6.68,1111122 
DISL,ioos:station:DISL:BSCA:1,2014-10-04T04:00:00Z,30.3288,-87.8293,2.006,6.47,1111122 
DISL,ioos:station:DISL:BSCA:1,2014-10-04T04:30:00Z,30.3288,-87.8293,2.039,6.59,1111122 
DISL,ioos:station:DISL:BSCA:1,2014-10-04T05:00:00Z,30.3288,-87.8293,2.052,6.67,1111122 
DISL,ioos:station:DISL:BSCA:1,2014-10-04T05:30:00Z,30.3288,-87.8293,2.09,6.58,1111122 
DISL,ioos:station:DISL:BSCA:1,2014-10-04T06:00:00Z,30.3288,-87.8293,2.104,6.52,1111122 
DISL,ioos:station:DISL:BSCA:1,2014-10-04T06:30:00Z,30.3288,-87.8293,2.088,6.37,1111122 
DISL,ioos:station:DISL:BSCA:1,2014-10-04T07:00:00Z,30.3288,-87.8293,2.067,6.35,1111122 
DISL,ioos:station:DISL:BSCA:1,2014-10-04T07:30:00Z,30.3288,-87.8293,2.04,6.13,1111122 
DISL,ioos:station:DISL:BSCA:1,2014-10-04T08:00:00Z,30.3288,-87.8293,2.036,5.82,1111122 
DISL,ioos:station:DISL:BSCA:1,2014-10-04T08:30:00Z,30.3288,-87.8293,2.037,5.64,1111122 
DISL,ioos:station:DISL:BSCA:1,2014-10-04T09:00:00Z,30.3288,-87.8293,2.065,5.7,1111122 
DISL,ioos:station:DISL:BSCA:1,2014-10-04T09:30:00Z,30.3288,-87.8293,2.092,5.96,1111122 
DISL,ioos:station:DISL:BSCA:1,2014-10-04T10:00:00Z,30.3288,-87.8293,2.126,5.98,1111122 
DISL,ioos:station:DISL:BSCA:1,2014-10-04T10:30:00Z,30.3288,-87.8293,2.149,6.09,1111122 
DISL,ioos:station:DISL:BSCA:1,2014-10-04T11:00:00Z,30.3288,-87.8293,2.178,6.15,1111122 
DISL,ioos:station:DISL:BSCA:1,2014-10-04T11:30:00Z,30.3288,-87.8293,2.187,6.17,1111122 
DISL,ioos:station:DISL:BSCA:1,2014-10-04T12:00:00Z,30.3288,-87.8293,2.167,6.36,1111122 
DISL,ioos:station:DISL:BSCA:1,2014-10-04T12:30:00Z,30.3288,-87.8293,2.15,6.39,1111122 
DISL,ioos:station:DISL:BSCA:1,2014-10-04T13:00:00Z,30.3288,-87.8293,2.114,6.43,1111122 
DISL,ioos:station:DISL:BSCA:1,2014-10-04T13:30:00Z,30.3288,-87.8293,2.1,6.47,1111122 
DISL,ioos:station:DISL:BSCA:1,2014-10-04T14:00:00Z,30.3288,-87.8293,2.053,6.37,1111122 
DISL,ioos:station:DISL:BSCA:1,2014-10-04T14:30:00Z,30.3288,-87.8293,2.026,6.47,1111122 
DISL,ioos:station:DISL:BSCA:1,2014-10-04T15:00:00Z,30.3288,-87.8293,2.014,6.52,1111122 
DISL,ioos:station:DISL:BSCA:1,2014-10-04T15:30:00Z,30.3288,-87.8293,2.0,6.37,1111122 
DISL,ioos:station:DISL:BSCA:1,2014-10-04T16:00:00Z,30.3288,-87.8293,1.994,6.61,1111122 
DISL,ioos:station:DISL:BSCA:1,2014-10-04T16:30:00Z,30.3288,-87.8293,1.962,6.88,1111122 
DISL,ioos:station:DISL:BSCA:1,2014-10-04T17:00:00Z,30.3288,-87.8293,1.962,6.99,1111122 
DISL,ioos:station:DISL:BSCA:1,2014-10-04T17:30:00Z,30.3288,-87.8293,2.013,7.1,1111122 
DISL,ioos:station:DISL:BSCA:1,2014-10-04T18:00:00Z,30.3288,-87.8293,1.933,7.15,1111122 
DISL,ioos:station:DISL:BSCA:1,2014-10-04T18:30:00Z,30.3288,-87.8293,1.912,7.05,1111122 
DISL,ioos:station:DISL:BSCA:1,2014-10-04T19:00:00Z,30.3288,-87.8293,1.881,6.95,1111122 
DISL,ioos:station:DISL:BSCA:1,2014-10-04T19:30:00Z,30.3288,-87.8293,1.845,6.95,1111122 
DISL,ioos:station:DISL:BSCA:1,2014-10-04T20:00:00Z,30.3288,-87.8293,1.873,6.85,1111122 
DISL,ioos:station:DISL:BSCA:1,2014-10-04T20:30:00Z,30.3288,-87.8293,1.83,6.87,1111122 
DISL,ioos:station:DISL:BSCA:1,2014-10-04T21:00:00Z,30.3288,-87.8293,1.817,6.86,1111122 
DISL,ioos:station:DISL:BSCA:1,2014-10-04T21:30:00Z,30.3288,-87.8293,1.827,6.88,1111122 
DISL,ioos:station:DISL:BSCA:1,2014-10-04T22:00:00Z,30.3288,-87.8293,1.815,6.96,1111122 
DISL,ioos:station:DISL:BSCA:1,2014-10-04T22:30:00Z,30.3288,-87.8293,1.82,6.94,1111122 
DISL,ioos:station:DISL:BSCA:1,2014-10-04T23:00:00Z,30.3288,-87.8293,1.81,6.88,1111122 
DISL,ioos:station:DISL:BSCA:1,2014-10-04T23:30:00Z,30.3288,-87.8293,1.787,6.81,1111122 
DISL,ioos:station:DISL:BSCA:1,2014-10-05T00:00:00Z,30.3288,-87.8293,1.797,6.6,1111122 
DISL,ioos:station:DISL:BSCA:1,2014-10-05T00:30:00Z,30.3288,-87.8293,1.773,6.57,1111122 
DISL,ioos:station:DISL:BSCA:1,2014-10-05T01:00:00Z,30.3288,-87.8293,1.765,6.45,1111122 
DISL,ioos:station:DISL:BSCA:1,2014-10-05T01:30:00Z,30.3288,-87.8293,1.771,6.1,1111122 
DISL,ioos:station:DISL:BSCA:1,2014-10-05T02:00:00Z,30.3288,-87.8293,1.789,6.21,1111122 
DISL,ioos:station:DISL:BSCA:1,2014-10-05T02:30:00Z,30.3288,-87.8293,1.821,6.34,1111122 
DISL,ioos:station:DISL:BSCA:1,2014-10-05T03:00:00Z,30.3288,-87.8293,1.843,6.33,1111122 
DISL,ioos:station:DISL:BSCA:1,2014-10-05T03:30:00Z,30.3288,-87.8293,1.88,6.43,1111122 
DISL,ioos:station:DISL:BSCA:1,2014-10-05T04:00:00Z,30.3288,-87.8293,1.903,6.57,1111122 
DISL,ioos:station:DISL:BSCA:1,2014-10-05T04:30:00Z,30.3288,-87.8293,1.914,6.54,1111122 
DISL,ioos:station:DISL:BSCA:1,2014-10-05T05:00:00Z,30.3288,-87.8293,1.93,6.56,1111122 
DISL,ioos:station:DISL:BSCA:1,2014-10-05T05:30:00Z,30.3288,-87.8293,1.926,6.4,1111122 
DISL,ioos:station:DISL:BSCA:1,2014-10-05T06:00:00Z,30.3288,-87.8293,1.936,6.36,1111122 
DISL,ioos:station:DISL:BSCA:1,2014-10-05T06:30:00Z,30.3288,-87.8293,1.944,6.16,1111122 
DISL,ioos:station:DISL:BSCA:1,2014-10-05T07:00:00Z,30.3288,-87.8293,1.947,6.2,1111122 
DISL,ioos:station:DISL:BSCA:1,2014-10-05T07:30:00Z,30.3288,-87.8293,1.961,6.2,1111122 
DISL,ioos:station:DISL:BSCA:1,2014-10-05T08:00:00Z,30.3288,-87.8293,1.973,6.26,1111122 
DISL,ioos:station:DISL:BSCA:1,2014-10-05T08:30:00Z,30.3288,-87.8293,1.982,6.19,1111122 
DISL,ioos:station:DISL:BSCA:1,2014-10-05T09:00:00Z,30.3288,-87.8293,1.993,5.91,1111122 
DISL,ioos:station:DISL:BSCA:1,2014-10-05T09:30:00Z,30.3288,-87.8293,1.996,5.65,1111122 
DISL,ioos:station:DISL:BSCA:1,2014-10-05T10:00:00Z,30.3288,-87.8293,2.014,5.99,1111122 
DISL,ioos:station:DISL:BSCA:1,2014-10-05T10:30:00Z,30.3288,-87.8293,2.017,5.5,1111122 
DISL,ioos:station:DISL:BSCA:1,2014-10-05T11:00:00Z,30.3288,-87.8293,2.032,5.75,1111122 
DISL,ioos:station:DISL:BSCA:1,2014-10-05T11:30:00Z,30.3288,-87.8293,2.028,5.75,1111122 
DISL,ioos:station:DISL:BSCA:1,2014-10-05T12:00:00Z,30.3288,-87.8293,2.043,5.73,1111122 
DISL,ioos:station:DISL:BSCA:1,2014-10-05T12:30:00Z,30.3288,-87.8293,2.045,5.79,1111122 
DISL,ioos:station:DISL:BSCA:1,2014-10-05T13:00:00Z,30.3288,-87.8293,2.053,5.81,1111122 
DISL,ioos:station:DISL:BSCA:1,2014-10-05T13:30:00Z,30.3288,-87.8293,2.049,5.74,1111122 
DISL,ioos:station:DISL:BSCA:1,2014-10-05T14:00:00Z,30.3288,-87.8293,2.053,6.01,1111122 
DISL,ioos:station:DISL:BSCA:1,2014-10-05T14:30:00Z,30.3288,-87.8293,2.064,5.82,1111122 
DISL,ioos:station:DISL:BSCA:1,2014-10-05T15:00:00Z,30.3288,-87.8293,2.073,5.93,1111122 
DISL,ioos:station:DISL:BSCA:1,2014-10-05T15:30:00Z,30.3288,-87.8293,2.078,5.87,1111122 
DISL,ioos:station:DISL:BSCA:1,2014-10-05T16:00:00Z,30.3288,-87.8293,2.083,6.24,1111122 
DISL,ioos:station:DISL:BSCA:1,2014-10-05T16:30:00Z,30.3288,-87.8293,2.074,5.49,1111122 
DISL,ioos:station:DISL:BSCA:1,2014-10-05T17:00:00Z,30.3288,-87.8293,2.046,6.2,1111122 
DISL,ioos:station:DISL:BSCA:1,2014-10-05T17:30:00Z,30.3288,-87.8293,2.024,6.51,1111122 
DISL,ioos:station:DISL:BSCA:1,2014-10-05T18:00:00Z,30.3288,-87.8293,1.98,7.35,1111122 
DISL,ioos:station:DISL:BSCA:1,2014-10-05T18:30:00Z,30.3288,-87.8293,1.952,7.33,1111122 
DISL,ioos:station:DISL:BSCA:1,2014-10-05T19:00:00Z,30.3288,-87.8293,1.917,7.44,1111122 
DISL,ioos:station:DISL:BSCA:1,2014-10-05T19:30:00Z,30.3288,-87.8293,1.904,7.26,1111122 
DISL,ioos:station:DISL:BSCA:1,2014-10-05T20:00:00Z,30.3288,-87.8293,1.88,7.1,1111122 
DISL,ioos:station:DISL:BSCA:1,2014-10-05T20:30:00Z,30.3288,-87.8293,1.874,6.89,1111122 
DISL,ioos:station:DISL:BSCA:1,2014-10-05T21:00:00Z,30.3288,-87.8293,1.854,7.2,1111122 
DISL,ioos:station:DISL:BSCA:1,2014-10-05T21:30:00Z,30.3288,-87.8293,1.838,6.43,1111122 
DISL,ioos:station:DISL:BSCA:1,2014-10-05T22:00:00Z,30.3288,-87.8293,1.824,6.75,1111122 
DISL,ioos:station:DISL:BSCA:1,2014-10-05T22:30:00Z,30.3288,-87.8293,1.824,6.66,1111122 
DISL,ioos:station:DISL:BSCA:1,2014-10-05T23:00:00Z,30.3288,-87.8293,1.818,5.81,1111122 
DISL,ioos:station:DISL:BSCA:1,2014-10-05T23:30:00Z,30.3288,-87.8293,1.824,5.86,1111122 
DISL,ioos:station:DISL:BSCA:1,2014-10-06T00:00:00Z,30.3288,-87.8293,1.822,6.51,1111122 
DISL,ioos:station:DISL:BSCA:1,2014-10-06T00:30:00Z,30.3288,-87.8293,1.82,6.29,1111122 
DISL,ioos:station:DISL:BSCA:1,2014-10-06T01:00:00Z,30.3288,-87.8293,1.825,6.62,1111122 
DISL,ioos:station:DISL:BSCA:1,2014-10-06T01:30:00Z,30.3288,-87.8293,1.832,6.06,1111122 
DISL,ioos:station:DISL:BSCA:1,2014-10-06T02:00:00Z,30.3288,-87.8293,1.852,7.02,1111122 
DISL,ioos:station:DISL:BSCA:1,2014-10-06T02:30:00Z,30.3288,-87.8293,1.855,6.41,1111122 
DISL,ioos:station:DISL:BSCA:1,2014-10-06T03:00:00Z,30.3288,-87.8293,1.886,6.3,1111122 
DISL,ioos:station:DISL:BSCA:1,2014-10-06T03:30:00Z,30.3288,-87.8293,1.913,5.74,1111122 
DISL,ioos:station:DISL:BSCA:1,2014-10-06T04:00:00Z,30.3288,-87.8293,1.949,5.19,1111122 
DISL,ioos:station:DISL:BSCA:1,2014-10-06T04:30:00Z,30.3288,-87.8293,1.972,5.09,1111122 
DISL,ioos:station:DISL:BSCA:1,2014-10-06T05:00:00Z,30.3288,-87.8293,1.983,5.41,1111122 
DISL,ioos:station:DISL:BSCA:1,2014-10-06T05:30:00Z,30.3288,-87.8293,1.983,5.36,1111122 
DISL,ioos:station:DISL:BSCA:1,2014-10-06T06:00:00Z,30.3288,-87.8293,1.98,5.64,1111122 
DISL,ioos:station:DISL:BSCA:1,2014-10-06T06:30:00Z,30.3288,-87.8293,1.97,5.37,1111122 
DISL,ioos:station:DISL:BSCA:1,2014-10-06T07:00:00Z,30.3288,-87.8293,1.961,5.33,1111122 
DISL,ioos:station:DISL:BSCA:1,2014-10-06T07:30:00Z,30.3288,-87.8293,1.958,5.33,1111122 
DISL,ioos:station:DISL:BSCA:1,2014-10-06T08:00:00Z,30.3288,-87.8293,1.956,5.84,1111122 
DISL,ioos:station:DISL:BSCA:1,2014-10-06T08:30:00Z,30.3288,-87.8293,1.962,5.64,1111122 
DISL,ioos:station:DISL:BSCA:1,2014-10-06T09:00:00Z,30.3288,-87.8293,1.958,6.36,1111122 
DISL,ioos:station:DISL:BSCA:1,2014-10-06T09:30:00Z,30.3288,-87.8293,1.939,6.19,1111122 
DISL,ioos:station:DISL:BSCA:1,2014-10-06T10:00:00Z,30.3288,-87.8293,1.967,6.32,1111122 
DISL,ioos:station:DISL:BSCA:1,2014-10-06T10:30:00Z,30.3288,-87.8293,1.969,6.38,1111122 
DISL,ioos:station:DISL:BSCA:1,2014-10-06T11:00:00Z,30.3288,-87.8293,2.002,6.28,1111122 
DISL,ioos:station:DISL:BSCA:1,2014-10-06T11:30:00Z,30.3288,-87.8293,2.023,5.66,1111122 
DISL,ioos:station:DISL:BSCA:1,2014-10-06T12:00:00Z,30.3288,-87.8293,2.053,5.54,1111122 
DISL,ioos:station:DISL:BSCA:1,2014-10-06T12:30:00Z,30.3288,-87.8293,2.066,5.37,1111122 
DISL,ioos:station:DISL:BSCA:1,2014-10-06T13:00:00Z,30.3288,-87.8293,2.084,5.42,1111122 
DISL,ioos:station:DISL:BSCA:1,2014-10-06T13:30:00Z,30.3288,-87.8293,2.1,5.2,1111122 
DISL,ioos:station:DISL:BSCA:1,2014-10-06T14:00:00Z,30.3288,-87.8293,2.112,5.7,1111122 
DISL,ioos:station:DISL:BSCA:1,2014-10-06T14:30:00Z,30.3288,-87.8293,2.124,5.78,1111122 
DISL,ioos:station:DISL:BSCA:1,2014-10-06T15:00:00Z,30.3288,-87.8293,2.133,6.62,1111122 
DISL,ioos:station:DISL:BSCA:1,2014-10-06T15:30:00Z,30.3288,-87.8293,2.124,6.41,1111122 